Tracking 31027 objects as of 19-Jul-2025
HD Live streaming from Space Station
objects crossing your sky now

SL-24 R/B

Track SL-24 R/B now!
10-day predictions


NORAD ID: 39228
Int'l Code: 2013-042B
Perigee: 545.4 km
Apogee: 1,198.3 km
Inclination: 97.5 °
Period: 102.2 minutes
Semi major axis: 7242 km
RCS: Unknown
Launch date: August 22, 2013
Source: Commonwealth of Independent States (former USSR) (CIS)
Launch site: Orenburg, Russia (OREN)

Note: This is a ROCKET BODY
Your satellite tracking list
Your tracking list is empty




NASA's NSSDC Master Catalog

Two Line Element Set (TLE):
1 39228U 13042B   25199.54066446  .00000089  00000-0  29111-4 0  9990
2 39228  97.5480  96.0952 0450707  90.9615 274.3213 14.08437954607339
Source of the keplerian elements: AFSPC